Probability
0 0 0 0 3 0 0 0 0 0 0 0 0 0 0 0 0 0 0 0 0 0 0 0 0 0 0 0 0 0 0 0 0 0 0 0 0 0 0 0 0 0 0
0 0 0 0 3 0 0 0 0 0 0 0 0 0 0 0 0 0 0 0 0 0 0 0 0 0 0 0 0 0 0 0 0 0 0 0 0 0 0 0 0 0 0
0 0 0 13 3 0 0 0 0 0 0 0 0 0 0 0 0 0 0 0 0 0 0 0 0 0 0 0 0 0 0 0 0 0 0 0 0 0 0 0 0 0 0
0 0 0 10 10 6 0 0 0 0 0 0 0 0 0 0 0 0 0 0 0 0 0 0 0 0 0 0 0 0 0 0 0 0 0 0 0 0 0 0 0 0 0
0 0 0 10 10 6 0 0 0 0 0 0 0 0 0 0 0 0 0 0 0 0 0 0 0 0 0 0 0 0 0 0 0 0 0 0 0 0 0 0 0 0 0
0 0 0 23 0 6 0 0 0 0 0 0 0 0 0 0 0 0 0 0 0 0 0 0 0 0 0 0 0 0 0 0 0 0 0 0 0 0 0 0 0 0 0
0 0 0 0 0 3 0 0 0 0 0 0 0 0 0 0 0 0 0 0 0 0 0 0 0 0 0 0 0 0 0 0 0 0 0 0 0 0 0 0 0 0 0
0 0 0 0 3 16 3 0 0 0 0 0 0 0 0 0 0 0 0 0 0 0 0 0 0 0 0 0 0 0 0 0 0 0 0 0 0 0 0 0 0 0 0
0 0 0 0 0 0 3 0 0 0 0 0 0 0 0 0 0 0 0 0 0 0 0 0 0 0 0 0 0 0 0 0 0 0 0 0 0 0 0 0 0 0 0
0 0 0 0 0 0 0 0 0 0 0 0 0 0 0 0 0 0 0 0 0 0 0 0 0 0 0 0 0 0 0 0 0 0 0 0 0 0 0 0 0 0 0
0 0 0 0 0 0 0 0 0 0 0 0 0 0 0 0 0 0 0 0 0 0 0 0 0 0 0 0 0 0 0 0 0 0 0 0 0 0 0 0 0 0 0
0 0 0 0 0 0 0 0 0 0 0 0 0 0 0 0 0 0 0 0 0 0 0 0 0 0 0 0 0 0 0 0 0 0 0 0 0 0 0 0 0 0 0
0 0 0 0 0 0 0 0 0 0 0 0 0 0 0 0 0 0 0 0 0 0 0 0 0 0 0 0 0 0 0 0 0 0 0 0 0 0 0 0 0 0 0
0 0 0 0 0 0 0 0 0 0 0 0 0 0 0 0 0 0 0 0 0 0 0 0 0 0 0 0 0 0 0 0 0 0 0 0 0 0 0 0 0 0 0
0 0 0 0 0 0 0 0 0 0 0 0 0 0 0 0 0 0 0 0 0 0 0 0 0 0 0 0 0 0 0 0 0 0 0 0 0 0 0 0 0 0 0
0 0 0 0 0 0 0 0 0 0 0 0 0 0 0 0 0 0 0 0 0 0 0 0 0 0 0 0 0 0 0 0 0 0 0 0 0 0 0 0 0 0 0
0 0 0 0 0 0 0 0 0 0 0 0 0 0 0 0 0 0 0 0 0 0 0 0 0 0 0 0 0 0 0 0 0 0 0 0 0 0 0 0 0 0 0
0 0 0 0 0 0 0 0 0 0 0 0 0 0 0 0 0 0 0 0 0 0 0 0 0 0 0 0 0 0 0 0 0 0 0 0 0 0 0 0 0 0 0
0 0 0 0 0 0 0 0 0 0 0 0 0 0 0 0 0 0 0 0 0 0 0 0 0 0 0 0 0 0 0 0 0 0 0 0 0 0 0 0 0 0 0
0 0 0 0 0 0 0 0 0 0 0 0 0 0 0 0 0 0 0 0 0 0 0 0 0 0 0 0 0 0 0 0 0 0 0 0 0 0 0 0 0 0 0
0 0 0 0 0 0 0 0 0 0 0 0 0 0 0 0 0 0 0 0 0 0 0 0 0 0 0 0 0 0 0 0 0 0 0 0 0 0 0 0 0 0 0
0 0 0 0 0 0 0 0 0 0 0 0 0 0 0 0 0 0 0 0 0 0 0 0 0 0 0 0 0 0 0 0 0 0 0 0 0 0 0 0 0 0 0
0 0 0 0 0 0 0 0 0 0 0 0 0 0 0 0 0 0 0 0 0 0 0 0 0 0 0 0 0 0 0 0 0 0 0 0 0 0 0 0 0 0 0
0 0 0 0 0 0 0 0 0 0 0 0 0 0 0 0 0 0 0 0 0 0 0 0 0 0 0 0 0 0 0 0 0 0 0 0 0 0 0 0 0 0 0
0 0 0 0 0 0 0 0 0 0 0 0 0 0 0 0 0 0 0 0 0 0 0 0 0 0 0 0 0 0 0 0 0 0 0 0 0 0 0 0 0 0 0
0 0 0 0 0 0 0 0 0 0 0 0 0 0 0 0 0 0 0 0 0 0 0 0 0 0 0 0 0 0 0 0 0 0 0 0 0 0 0 0 0 0 0
Height
5867 5866 5865 5865 5864 5864 5863 5863 5863 5863 5863 5862 5862 5862 5861 5861 5861 5861 5860 5860 5859 5858 5857 5856 5855 5854 5853 5851 5851 5850 5848 5847 5845 5842 5840 5837 5835 5833 5831 5829 5828 5827 5827
5865 5864 5863 5863 5862 5862 5861 5861 5860 5860 5859 5859 5860 5860 5859 5859 5859 5858 5857 5857 5856 5855 5854 5854 5853 5852 5850 5849 5848 5847 5846 5844 5842 5839 5836 5834 5831 5829 5827 5826 5825 5824 5824
5864 5863 5862 5861 5860 5860 5859 5858 5857 5857 5856 5856 5857 5857 5856 5856 5856 5855 5854 5854 5853 5852 5852 5851 5851 5849 5848 5847 5846 5845 5843 5841 5839 5836 5833 5831 5828 5827 5825 5824 5822 5822 5821
5862 5861 5861 5859 5859 5858 5857 5856 5855 5854 5853 5853 5854 5854 5854 5854 5853 5853 5852 5851 5851 5850 5849 5848 5848 5847 5846 5845 5843 5842 5840 5838 5836 5833 5830 5828 5826 5825 5823 5822 5821 5820 5819
5860 5859 5859 5858 5857 5856 5855 5854 5853 5852 5851 5851 5851 5851 5851 5851 5851 5850 5849 5849 5848 5847 5845 5845 5844 5844 5843 5842 5840 5838 5837 5835 5833 5831 5829 5826 5825 5823 5822 5821 5819 5818 5816
5857 5857 5857 5856 5855 5854 5853 5853 5852 5851 5850 5849 5848 5848 5848 5848 5848 5848 5847 5846 5845 5843 5842 5842 5841 5840 5839 5838 5836 5834 5833 5832 5830 5829 5827 5825 5823 5822 5820 5819 5817 5815 5813
5855 5854 5854 5853 5853 5852 5851 5851 5850 5849 5848 5847 5846 5845 5845 5845 5845 5844 5843 5842 5842 5841 5840 5838 5837 5836 5835 5834 5832 5830 5829 5828 5826 5825 5824 5822 5821 5819 5817 5815 5813 5812 5810
5851 5852 5851 5851 5850 5849 5849 5848 5847 5847 5846 5844 5843 5842 5842 5841 5841 5840 5839 5838 5838 5836 5835 5834 5833 5832 5831 5829 5828 5826 5824 5823 5821 5820 5819 5817 5816 5814 5812 5810 5809 5807 5805
5849 5849 5849 5848 5847 5846 5845 5845 5844 5843 5842 5841 5840 5839 5839 5838 5837 5836 5835 5834 5833 5832 5831 5830 5828 5827 5825 5824 5822 5821 5819 5817 5815 5813 5812 5810 5809 5807 5806 5804 5802 5800 5799
5846 5846 5846 5846 5845 5844 5843 5842 5841 5840 5839 5838 5837 5836 5835 5834 5833 5832 5831 5830 5829 5828 5827 5825 5823 5822 5820 5818 5816 5814 5813 5810 5808 5806 5805 5803 5801 5799 5797 5795 5793 5792 5790
5843 5843 5844 5843 5842 5841 5840 5839 5837 5836 5835 5834 5833 5832 5831 5829 5828 5827 5826 5826 5825 5823 5822 5820 5818 5816 5813 5811 5809 5807 5805 5803 5801 5798 5796 5794 5792 5790 5788 5786 5784 5782 5780
5840 5840 5840 5840 5839 5838 5836 5835 5834 5832 5831 5829 5828 5827 5826 5824 5823 5822 5821 5820 5819 5817 5816 5814 5811 5809 5806 5804 5801 5798 5796 5794 5792 5789 5787 5785 5783 5780 5778 5776 5774 5772 5770
5836 5836 5836 5836 5836 5834 5833 5831 5830 5828 5826 5825 5823 5822 5820 5819 5818 5817 5816 5814 5813 5811 5809 5806 5803 5800 5797 5794 5791 5788 5786 5784 5782 5780 5778 5775 5772 5770 5768 5766 5763 5761 5759
5832 5833 5833 5833 5832 5831 5829 5828 5826 5824 5822 5821 5819 5818 5816 5815 5814 5812 5810 5807 5805 5803 5800 5797 5794 5791 5788 5785 5782 5779 5776 5774 5772 5770 5768 5765 5762 5760 5757 5755 5752 5750 5748
5828 5829 5829 5829 5828 5826 5825 5823 5822 5820 5818 5817 5815 5814 5812 5810 5808 5805 5802 5800 5797 5795 5792 5788 5785 5782 5779 5776 5773 5770 5768 5765 5763 5760 5759 5756 5752 5750 5747 5744 5742 5739 5737
5825 5825 5825 5825 5823 5822 5820 5819 5817 5816 5814 5812 5810 5808 5806 5803 5800 5797 5794 5792 5789 5786 5782 5779 5776 5774 5771 5768 5765 5762 5760 5757 5755 5752 5749 5747 5744 5740 5737 5734 5731 5728 5725
5820 5821 5821 5820 5818 5816 5815 5814 5812 5811 5809 5807 5805 5802 5800 5797 5794 5790 5787 5783 5780 5777 5774 5772 5769 5767 5764 5761 5758 5755 5752 5749 5746 5743 5740 5737 5734 5730 5726 5723 5719 5716 5712
5816 5816 5815 5814 5812 5811 5810 5808 5807 5805 5803 5801 5798 5796 5793 5790 5786 5783 5780 5776 5773 5770 5767 5765 5762 5759 5756 5753 5750 5747 5744 5741 5737 5733 5730 5726 5722 5719 5715 5710 5706 5702 5699
5810 5810 5809 5808 5807 5805 5804 5802 5801 5799 5797 5794 5791 5788 5785 5782 5779 5776 5773 5769 5766 5763 5760 5757 5754 5751 5747 5744 5741 5738 5735 5731 5728 5724 5719 5714 5710 5705 5701 5697 5693 5689 5684
5804 5804 5803 5802 5801 5799 5798 5797 5795 5793 5791 5787 5784 5781 5777 5774 5772 5769 5766 5763 5760 5757 5753 5750 5746 5742 5738 5735 5732 5728 5725 5721 5716 5712 5707 5702 5697 5692 5686 5682 5677 5673 5669
5798 5798 5797 5796 5795 5793 5792 5791 5789 5787 5784 5780 5777 5773 5770 5767 5765 5762 5759 5756 5752 5749 5745 5741 5737 5733 5729 5724 5720 5717 5714 5709 5703 5698 5693 5688 5682 5677 5671 5665 5660 5655 5650
5792 5792 5791 5790 5789 5788 5787 5785 5783 5780 5777 5773 5770 5767 5764 5761 5757 5754 5751 5747 5743 5739 5735 5731 5727 5723 5718 5712 5707 5702 5699 5697 5691 5684 5677 5671 5666 5660 5654 5648 5641 5635 5629
5786 5786 5785 5784 5783 5782 5780 5778 5776 5773 5769 5766 5763 5760 5756 5753 5750 5746 5742 5738 5734 5730 5726 5721 5716 5711 5706 5700 5693 5685 5679 5675 5672 5670 5663 5656 5649 5642 5636 5629 5622 5614 5607
5781 5781 5780 5779 5778 5776 5774 5771 5768 5765 5762 5759 5756 5752 5749 5745 5741 5737 5733 5729 5725 5720 5715 5709 5704 5698 5691 5685 5678 5670 5661 5652 5645 5642 5639 5631 5625 5619 5612 5606 5599 5590 5581
5775 5775 5775 5774 5772 5770 5767 5765 5762 5758 5755 5752 5748 5744 5741 5737 5732 5728 5724 5719 5714 5708 5702 5696 5689 5682 5675 5667 5659 5650 5642 5633 5624 5617 5613 5608 5599 5591 5584 5577 5569 5560 5550
5770 5770 5769 5768 5766 5763 5761 5758 5755 5751 5747 5744 5740 5736 5732 5727 5723 5718 5713 5708 5702 5696 5689 5682 5674 5666 5658 5649 5639 5629 5619 5610 5600 5591 5586 5582 5575 5569 5558 5549 5538 5526 5516
Wind_Speed
17 19 18 17 16 17 16 16 14 14 15 17 18 16 15 14 15 14 13 12 12 12 12 12 13 14 14 15 16 16 17 18 20 22 23 23 23 23 23 23 23 23 22
18 18 17 15 15 14 15 16 15 16 16 17 19 17 16 15 15 14 13 13 13 14 14 15 15 15 16 17 18 19 19 20 23 24 24 23 22 21 20 19 18 18 17
17 15 14 14 14 13 14 16 16 16 15 16 18 18 17 16 15 14 13 14 15 16 15 16 16 16 16 18 19 19 20 21 23 24 22 21 19 18 17 15 14 14 13
15 13 13 13 13 13 14 15 15 14 14 15 17 18 18 18 17 15 15 16 18 17 16 16 17 17 17 19 20 20 20 20 22 22 20 18 17 16 15 14 13 12 12
13 11 12 12 13 13 13 14 14 13 13 14 16 18 20 20 19 17 16 18 20 19 18 18 18 18 19 20 21 20 20 20 20 20 19 18 16 16 15 15 13 13 13
12 11 11 12 13 14 14 14 15 14 14 14 15 17 19 21 20 20 19 20 20 20 20 19 19 19 20 21 22 22 22 23 22 21 20 19 18 17 18 18 17 17 17
12 11 11 12 13 14 15 15 16 16 16 15 14 16 19 21 22 22 23 23 22 20 19 19 19 19 20 21 22 23 25 26 26 26 25 24 23 23 23 23 23 23 23
12 10 11 12 13 14 15 16 17 18 18 17 16 17 18 20 22 24 25 24 23 21 20 20 20 21 22 23 24 26 27 29 30 30 29 30 30 30 30 30 29 29 29
12 11 11 12 13 14 15 16 17 19 20 20 20 20 20 20 21 22 24 25 24 23 22 23 24 25 27 28 29 30 31 32 34 34 34 35 35 36 36 37 37 36 35
12 11 11 12 13 14 15 16 17 19 20 22 24 24 23 23 23 23 23 25 25 25 26 27 29 31 32 33 34 34 35 37 38 39 40 40 40 40 40 40 41 41 40
13 13 12 11 12 13 15 16 18 20 21 23 25 26 27 26 26 26 26 26 27 28 29 31 33 35 36 37 38 39 40 41 43 44 45 45 44 44 43 42 42 42 42
15 15 14 13 13 13 14 16 17 19 21 22 24 26 27 28 28 28 28 29 30 31 33 35 37 39 40 42 43 44 44 45 46 46 47 47 46 44 43 43 42 42 42
18 18 17 16 15 15 16 16 17 19 20 21 22 23 24 26 27 27 28 29 31 33 35 38 40 42 43 45 45 45 44 44 45 45 46 46 46 45 45 45 44 44 45
20 20 19 18 18 17 18 18 19 20 20 20 20 20 21 23 25 26 28 30 33 35 38 40 42 44 44 44 43 42 41 41 42 44 45 46 46 46 47 47 48 48 49
22 21 21 21 20 19 20 21 21 22 22 21 21 21 22 24 26 29 31 33 36 38 40 41 41 40 39 39 39 38 38 39 40 42 43 43 44 44 45 46 47 48 49
22 22 22 23 22 22 22 23 23 23 23 24 24 25 27 28 30 32 33 35 35 35 35 35 35 34 34 34 35 36 37 38 39 41 42 43 45 46 47 48 49 50 51
21 21 22 23 23 23 24 25 25 25 25 26 27 29 30 32 33 33 33 34 33 33 33 33 33 34 34 35 36 38 40 41 43 45 47 48 49 51 52 53 54 54 55
21 22 22 23 24 25 25 26 27 27 27 28 31 33 35 35 34 33 33 33 33 33 33 34 34 35 37 38 40 41 43 45 47 48 50 52 53 53 54 55 55 56 55
23 24 25 26 26 26 26 26 27 28 29 32 34 36 37 36 34 33 33 33 33 34 35 36 38 39 41 42 43 44 45 47 48 50 52 54 56 57 58 58 59 59 60
26 27 28 28 27 26 26 26 28 29 32 34 36 37 36 35 35 34 34 35 36 37 38 40 41 42 43 45 46 47 48 51 53 55 57 59 61 62 64 65 65 66 67
28 29 29 27 25 24 25 27 29 31 34 36 36 36 36 35 36 36 37 38 39 40 41 42 42 43 46 48 50 52 54 56 59 61 63 65 66 67 69 70 72 74 75
30 29 26 24 24 24 26 28 31 33 35 36 36 36 36 37 38 39 40 41 41 42 42 44 45 47 50 53 57 60 61 62 63 66 68 69 70 72 73 74 76 78 80
29 27 25 23 24 25 27 30 33 34 35 35 35 36 37 39 40 41 41 41 42 43 45 47 50 52 55 58 62 66 70 72 72 71 72 74 75 76 77 78 80 82 85
27 25 25 25 26 28 30 32 34 35 35 35 36 38 39 40 41 41 42 43 45 47 49 52 55 59 62 65 68 71 75 79 82 82 82 83 83 83 84 85 86 89 92
25 26 26 28 29 31 32 33 34 35 36 37 38 39 39 40 41 42 44 46 49 52 55 58 62 65 68 72 75 78 80 82 85 89 90 89 90 91 92 93 95 98 100
26 27 28 29 31 32 33 34 35 36 38 38 39 39 40 42 43 46 48 51 54 57 61 65 68 71 74 77 80 83 86 88 91 93 94 94 95 96 98 99 101 103 105
Wind_Direction
266 268 273 276 277 278 277 272 265 260 254 248 248 247 244 245 246 246 246 249 259 267 271 275 282 289 294 298 301 303 305 308 307 305 302 298 295 292 287 283 281 282 285
265 271 277 279 278 276 275 272 267 260 257 252 250 249 248 251 251 248 249 251 258 263 267 273 280 287 292 295 298 301 306 312 313 311 307 302 300 297 294 291 287 287 289
272 278 283 282 277 273 272 271 268 263 261 256 249 247 248 253 254 253 254 256 258 260 266 276 284 287 290 291 295 300 309 317 320 318 315 309 305 303 300 298 295 294 294
276 283 288 284 277 274 274 275 274 273 268 261 251 246 248 252 256 261 265 266 264 263 267 275 283 287 287 288 293 300 307 316 322 324 322 317 311 307 304 301 300 299 298
274 282 287 285 280 278 280 282 280 277 274 265 254 249 249 253 257 264 272 275 270 265 266 271 279 285 286 288 292 296 300 305 312 317 319 316 312 308 304 301 298 294 293
269 278 282 283 279 280 282 281 280 278 274 268 258 253 253 255 260 266 272 276 275 272 271 274 280 286 287 289 292 293 295 297 299 303 305 305 303 300 298 296 293 291 290
267 273 278 280 279 278 281 281 278 277 275 272 270 266 263 262 264 267 272 276 279 281 280 281 283 285 286 288 291 292 292 293 293 294 295 295 293 291 291 291 291 290 289
259 265 276 283 284 281 279 279 277 276 277 276 275 275 275 274 272 272 274 277 281 283 282 281 282 282 283 284 285 286 287 288 289 290 292 292 290 288 287 287 287 287 286
252 261 275 287 289 286 281 279 278 276 275 276 276 276 278 280 281 280 278 277 277 277 279 280 281 281 283 283 284 284 284 284 285 287 289 290 291 289 287 285 284 283 283
250 260 272 286 290 288 285 281 278 276 274 272 272 272 275 278 280 282 282 280 278 278 281 282 283 284 286 286 286 285 284 284 285 286 287 288 289 289 286 284 282 281 280
248 256 265 282 289 290 289 287 281 278 277 276 274 273 273 275 277 280 281 282 282 282 282 283 284 285 287 287 287 286 285 284 284 285 287 287 288 287 286 284 282 280 278
246 251 259 275 287 295 296 294 289 285 283 282 280 277 275 277 278 280 281 282 282 282 282 283 284 285 286 287 287 286 284 282 282 283 285 286 286 285 283 282 281 279 278
246 250 257 269 282 291 296 297 295 291 288 286 284 282 281 280 280 281 281 281 280 280 280 281 282 284 285 286 287 286 285 282 282 282 283 283 283 282 281 279 278 277 276
245 250 256 267 278 286 290 293 294 293 292 290 289 288 287 286 285 284 282 281 280 280 280 281 283 284 285 287 287 286 285 284 283 282 282 282 283 282 281 280 279 278 278
246 252 259 266 275 282 286 290 292 292 291 290 290 290 289 288 287 285 283 282 282 282 283 284 285 286 287 288 288 287 287 287 286 286 286 286 287 286 285 285 284 284 283
247 254 261 266 273 279 283 286 287 286 285 286 286 287 288 288 287 285 284 284 284 285 285 286 288 289 290 290 290 290 291 290 289 288 288 288 287 287 287 286 286 285 284
250 257 263 268 273 277 280 282 281 281 282 285 288 290 292 293 292 291 290 289 288 288 288 288 289 290 291 291 292 293 293 293 293 293 292 291 290 289 289 288 287 285 285
256 263 268 273 275 278 279 279 277 279 283 288 293 296 297 297 295 293 291 291 290 290 290 291 292 293 293 294 294 295 295 296 296 296 296 295 294 293 291 290 288 286 285
261 266 270 274 275 276 277 277 277 281 287 292 296 298 298 297 294 292 291 290 289 290 292 293 295 296 296 297 297 298 299 299 298 298 297 296 295 294 292 290 288 288 287
264 268 271 273 274 275 276 278 281 286 292 295 298 298 297 296 295 293 293 292 294 295 297 298 298 299 299 299 300 300 301 300 300 299 298 296 294 293 291 290 288 287 286
266 270 271 271 273 274 277 280 286 290 294 296 296 296 295 296 296 297 298 299 300 300 300 300 300 301 301 302 301 301 301 300 299 298 296 295 293 291 289 288 287 286 285
267 269 268 269 271 274 278 283 288 292 294 295 295 295 296 298 300 301 302 301 301 300 300 300 301 301 302 302 302 301 300 299 297 297 295 293 292 290 289 288 287 286 285
264 265 266 268 271 275 280 285 289 292 293 295 296 298 299 300 301 300 300 299 299 298 298 299 299 300 301 301 302 302 301 300 298 296 295 293 291 290 288 287 286 285 283
262 265 268 270 273 277 281 286 290 293 295 296 296 297 298 299 298 297 297 296 295 296 297 298 299 300 301 302 302 302 301 301 300 299 298 296 294 292 290 288 286 284 283
263 267 270 273 277 280 284 288 291 293 293 294 295 296 296 295 294 293 293 294 296 298 300 301 303 304 304 304 303 303 301 300 299 299 298 297 295 294 292 290 289 287 285
267 271 274 277 280 283 286 289 291 293 294 294 295 295 294 293 293 294 297 299 301 302 304 305 305 305 305 304 303 303 302 301 299 298 297 295 294 293 292 292 290 288 286